Date,TemperatureHighF,TemperatureAvgF,TemperatureLowF,DewpointHighF,DewpointAvgF,DewpointLowF,HumidityHigh,HumidityAvg,HumidityLow,PressureMaxIn,PressureMinIn,WindSpeedMaxMPH,WindSpeedAvgMPH,GustSpeedMaxMPH,PrecipitationSumIn
2013-11-4,58.1,53.7,51.6,45.0,44.0,42.0,78,70,56,30.06,29.95,4,0,14,0.00
2013-11-5,56.7,53.3,50.7,53.4,49.3,44.5,100,86,75,30.12,29.82,6,1,13,0.04
2013-11-6,56.8,47.2,33.4,56.0,45.3,28.4,100,93,81,30.03,29.69,6,1,19,0.35
2013-11-7,49.6,37.0,27.9,37.7,30.0,23.7,91,77,52,30.15,30.02,5,0,13,0.00
2013-11-8,51.1,40.2,27.7,36.3,30.8,24.6,93,71,43,30.18,29.87,8,0,17,0.00
2013-11-9,64.0,50.4,41.4,41.9,36.6,32.8,80,61,35,30.01,29.79,6,0,14,0.00
2013-11-10,50.4,39.7,32.2,35.9,30.5,26.7,82,70,46,30.23,30.01,4,0,10,0.00
2013-11-11,53.8,40.6,25.7,41.6,33.6,20.4,93,77,59,30.31,29.93,6,0,11,0.01
2013-11-12,33.3,24.4,17.8,22.1,16.3,10.7,80,71,56,30.54,30.31,5,0,10,0.06
2013-11-13,41.5,28.9,16.0,23.0,16.3,9.5,81,60,41,30.47,30.07,6,1,14,0.01
2013-11-14,53.4,40.6,30.6,27.2,21.2,16.6,57,47,24,30.07,29.84,7,2,17,0.00
2013-11-15,50.7,44.5,39.2,39.7,32.6,26.5,90,63,52,29.86,29.78,4,0,11,0.00
2013-11-16,62.1,53.9,41.7,58.2,51.1,39.0,100,91,73,29.79,29.45,13,3,24,0.06
2013-11-17,71.8,58.6,42.4,64.6,53.3,37.4,97,83,65,29.71,29.10,17,5,27,0.08
2013-11-18,48.9,40.6,30.6,39.3,31.8,23.9,90,72,44,30.10,29.70,11,3,20,0.00
2013-11-19,43.9,33.1,24.1,31.0,25.2,-10.8,85,73,10,30.19,30.07,6,1,24,0.00
2013-11-20,43.5,36.7,28.4,38.8,31.0,23.9,90,80,64,30.09,29.85,11,2,24,0.14
2013-11-21,49.3,46.1,41.5,46.8,43.7,38.8,100,91,84,30.03,29.92,6,0,9,0.25
2013-11-22,46.0,37.1,28.2,45.2,35.0,23.7,100,92,78,30.32,30.00,5,0,12,0.08
2013-11-23,28.2,22.5,14.2,23.7,12.0,3.1,84,64,49,30.53,30.28,0,0,0,0.00
2013-11-24,27.9,18.0,9.1,8.5,2.9,-5.3,67,52,24,30.57,30.24,3,0,6,0.00
2013-11-25,32.4,28.4,21.2,22.5,15.5,8.2,71,58,51,30.24,29.96,2,0,8,0.00
2013-11-26,36.0,28.0,17.4,25.2,16.9,2.0,78,63,49,30.00,29.85,10,1,21,0.00
2013-11-27,28.0,18.5,11.7,5.3,2.4,-1.0,60,49,29,30.11,29.99,7,1,17,0.00
2013-11-28,38.5,26.1,16.5,18.0,11.7,4.8,67,55,38,30.32,30.02,7,1,14,0.00
2013-11-29,39.2,26.2,13.3,22.4,14.2,5.7,76,61,44,30.44,30.22,8,0,12,0.00
2013-11-30,52.3,35.9,23.9,30.9,23.8,16.1,80,63,41,30.22,29.91,5,0,11,0.00